Regional Weather Roundup
Issued by NWS

Home | Current Version | Previous Version | Text Only | Print | Product List | Glossary Off
Versions: 1 2 3 4 5 6 7 8 9 10 11 12 13 14 15 16 17 18 19 20 21 22 23 24 25 26 27 28 29 30 31 32 33 34 35 36 37 38 39 40 41 42 43 44 45 46 47 48 49 50

000
ASUS43 KLMK 190402
RWRKY
KENTUCKY REGIONAL WEATHER ROUNDUP
NATIONAL WEATHER SERVICE LOUISVILLE KY
1100 PM EST THU DEC 18 2014

NOTE "FAIR" INDICATES FEW OR NO CLOUDS BELOW 12,000 FEET
WITH NO SIGNIFICANT WEATHER AND/OR OBSTRUCTIONS TO VISIBILITY.

KYZ001>023-026-027-061>063-070>075-190500-
WESTERN AND SOUTH CENTRAL KENTUCKY

CITY           SKY/WX    TMP DP  RH WIND       PRES   REMARKS
PADUCAH        CLOUDY    35  31  85 NE5       30.27R WCI  31
HENDERSON      CLOUDY    34  25  69 N5        30.28R WCI  30
OWENSBORO      CLOUDY    33  27  79 VRB6      30.28R WCI  27
HOPKINSVILLE   CLOUDY    34  29  83 NW3       30.26R
BOWLING GREEN  CLOUDY    35  26  69 CALM      30.26R
GLASGOW        NOT AVBL
$$

KYZ024-025-028>034-038-045-046-053-190500-
NORTH CENTRAL KENTUCKY

CITY           SKY/WX    TMP DP  RH WIND       PRES   REMARKS
LOUISVILLE/SDF CLOUDY    32  24  72 N5        30.27R WCI  27
LOUISVILLE/LOU CLOUDY    32  24  72 CALM      30.27R
FORT KNOX      CLOUDY    31  25  77 NW1       30.24R
$$

KYZ035>037-039>044-047>052-055>060-089>105-190500-
NORTHEAST KENTUCKY

CITY           SKY/WX    TMP DP  RH WIND       PRES   REMARKS
LEXINGTON      CLOUDY    30  24  78 N5        30.23R WCI  25
COVINGTON      CLOUDY    29  20  69 N3        30.24R
FRANKFORT      CLOUDY    30  23  75 CALM      30.24R
$$

KYZ054-064>069-076>088-106>120-190500-
SOUTHEAST KENTUCKY

CITY           SKY/WX    TMP DP  RH WIND       PRES   REMARKS
JACKSON        CLOUDY    31  24  75 NW3       30.19R
LONDON         CLOUDY    34  25  69 NW3       30.20S
SOMERSET       NOT AVBL
MIDDLESBORO    NOT AVBL
MONTICELLO     CLOUDY    35  28  76 N5        30.25R WCI  31
$$




USA.gov is the U.S. government's official web portal to all federal, state and local government web resources and services.